Regional Weather Roundup
Issued by NWS Charleston, WV

Home | Current Version | Previous Version | Text Only | Print | Product List | Glossary On
Versions: 1 2 3 4 5 6 7 8 9 10 11 12 13 14 15 16 17 18 19 20 21 22 23 24 25 26 27 28 29 30 31 32 33 34 35 36 37 38 39 40 41 42 43 44 45 46
000
ASUS41 KRLX 251810
RWRRLX
West Virginia Regional Weather Roundup
National Weather Service Charleston WV
100 PM EST SAT FEB 25 2017

Note: "fair" indicates few or no clouds below 12,000 feet with no
significant weather and/or obstructions to visibility.

WVZ003-251900-
Northern Panhandle of West Virginia

CITY           SKY/WX    TMP DP  RH WIND       PRES   REMARKS
WHEELING       PTSUNNY   49  30  48 W16G36    29.63S
$$

WVZ009-251900-
Northwest West Virginia

CITY           SKY/WX    TMP DP  RH WIND       PRES   REMARKS
PARKERSBURG    PTSUNNY   47  31  53 NW22G32   29.76R
$$

WVZ006-251900-
Western West Virginia

CITY           SKY/WX    TMP DP  RH WIND       PRES   REMARKS
HUNTINGTON     PTSUNNY   44  29  55 W18G29    29.83R
$$

WVZ015-251900-
West Central West Virginia

CITY           SKY/WX    TMP DP  RH WIND       PRES   REMARKS
CHARLESTON     PTSUNNY   49  30  48 W15G37    29.75R
$$

WVZ022-031-251900-
North Central West Virginia

CITY           SKY/WX    TMP DP  RH WIND       PRES   REMARKS
CLARKSBURG     CLOUDY    48  42  80 W13G20    29.67R
MORGANTOWN     LGT RAIN  48  41  76 SW7       29.66R
$$

WVZ025-035-042-045-251900-
Southern West Virginia

CITY           SKY/WX    TMP DP  RH WIND       PRES   REMARKS
BECKLEY        PTSUNNY   48  36  63 W16G26    29.70F
LOGAN          PTSUNNY   50  36  57 W13G21    29.77R
BLUEFIELD      PTSUNNY   48  34  58 W21G33    29.71F
LEWISBURG      CLOUDY    48  42  79 SW13G18   29.69S
$$

WVZ047-251900-
Northern Mountains of West Virginia

CITY           SKY/WX    TMP DP  RH WIND       PRES   REMARKS
ELKINS         LGT RAIN  48  37  65 VRB7G20   29.67F
$$

WVZ052-251900-
Eastern Panhandle of West Virginia

CITY           SKY/WX    TMP DP  RH WIND       PRES   REMARKS
MARTINSBURG    CLOUDY    68  53  58 S7        29.48F
PETERSBURG     LGT RAIN  55  42  62 W5G24     29.61R
$$




USA.gov is the U.S. government's official web portal to all federal, state and local government web resources and services.